GW3509 Weather Reports


time (UTC)temp
F
wind
direction
speed
knots
gust
knots
rain 1hr
in
rain 24hr
in
rain mn
in
humidity
%
barometer
mb
20260504184314 0 77 1.7 1.7 0.00 0.00 0.00 1001.0
20260504183809 0 72 0.0 0.0 0.00 0.00 0.00 1000.9
20260504183307 0 137 0.9 1.7 0.00 0.00 0.00 1001.1
20260504182805 0 45 0.0 0.0 0.00 0.00 0.00 1001.2
20260504182304 0 32 1.7 1.7 0.00 0.00 0.00 1001.3
20260504181759 0 55 0.9 0.9 0.00 0.00 0.00 1001.1
20260504181256 0 102 0.9 0.9 0.00 0.00 0.00 1001.2
20260504180755 0 90 0.0 0.0 0.00 0.00 0.00 1001.4
20260504180254 0 335 0.9 0.9 0.00 0.00 0.00 1001.1
20260504175751 0 191 1.7 1.7 0.00 0.00 0.00 1001.2
20260504175248 0 141 0.9 0.9 0.00 0.00 0.00 1001.7
20260504174745 0 146 1.7 1.7 0.00 0.00 0.00 1001.7
20260504174243 0 189 2.6 2.6 0.00 0.00 0.00 1001.4
20260504173739 0 202 1.7 1.7 0.00 0.00 0.00 1001.7
20260504173237 0 210 0.9 0.9 0.00 0.00 0.00 1001.8
20260504172733 0 137 2.6 2.6 0.00 0.00 0.00 1001.8
20260504172230 0 80 0.9 0.9 0.00 0.00 0.00 1001.8
20260504171726 0 171 1.7 1.7 0.00 0.00 0.00 1002.1
20260504171223 0 3 0.9 1.7 0.00 0.00 0.00 1002.0
20260504170720 0 169 2.6 2.6 0.00 0.00 0.00 1002.3
20260504170217 0 117 0.0 0.9 0.00 0.00 0.00 1002.5
20260504160136 0 77 0.0 0.0 0.00 0.00 0.00 1003.8
20260504151103 0 72 0.0 0.0 0.00 0.00 0.00 1003.9
20260504150601 0 34 1.7 1.7 0.00 0.00 0.00 1003.9
20260504141026 0 59 0.0 0.9 0.00 0.00 0.00 1003.9
20260504140523 0 94 0.9 0.9 0.00 0.00 0.00 1003.9
20260504130447 0 88 0.0 0.0 0.00 0.00 0.00 1004.6
20260504110329 0 89 0.0 0.0 0.00 0.00 0.00 1005.0
20260504100245 0 94 0.0 0.0 0.00 0.00 0.00 1004.6
20260504081639 0 79 0.0 0.0 0.00 0.00 0.00 1004.1
20260504081135 0 81 0.0 0.0 0.00 0.00 0.00 1004.3
20260504080632 0 95 0.0 0.0 0.00 0.00 0.00 1004.3
20260504080128 0 83 0.0 0.0 0.00 0.00 0.00 1004.3
20260504050444 0 68 0.0 0.0 0.00 0.00 0.00 1004.9
20260504045941 0 66 0.0 0.0 0.00 0.00 0.00 1005.0
20260504045437 0 79 0.0 0.0 0.00 0.00 0.00 1005.0
20260504044933 0 49 0.9 0.9 0.00 0.00 0.00 1005.4
20260504044431 0 59 0.0 0.0 0.00 0.00 0.00 1005.2
20260504043928 0 82 0.0 0.0 0.00 0.00 0.00 1005.4
20260504043425 0 78 0.0 0.0 0.00 0.00 0.00 1005.4
20260504042918 0 89 0.0 0.0 0.00 0.00 0.00 1005.6
20260504042414 0 80 0.0 0.0 0.00 0.00 0.00 1005.6
20260504041910 0 52 0.0 0.9 0.00 0.00 0.00 1005.6
20260504041407 0 56 0.0 0.0 0.00 0.00 0.00 1005.7
20260504040903 0 63 0.0 0.0 0.00 0.00 0.00 1005.8
20260504040400 0 77 0.0 0.0 0.00 0.00 0.00 1005.9
20260504035855 0 37 0.0 0.0 0.00 0.00 0.00 1005.8
20260504035353 0 75 0.0 0.0 0.00 0.00 0.00 1005.8
20260504034849 0 74 0.0 0.0 0.00 0.00 0.00 1006.0
20260504034347 0 81 0.0 0.0 0.00 0.00 0.00 1006.2
20260504033844 0 81 0.0 0.0 0.00 0.00 0.00 1006.4
20260504033342 0 66 0.0 0.0 0.00 0.00 0.00 1006.5
20260504032838 0 66 0.0 0.0 0.00 0.00 0.00 1006.3
20260504032336 0 68 0.0 0.0 0.00 0.00 0.00 1006.6
20260504031832 0 57 0.0 0.0 0.00 0.00 0.00 1006.3
20260504031330 0 74 0.0 0.0 0.00 0.00 0.00 1006.2
20260504030826 0 50 0.0 0.0 0.00 0.00 0.00 1006.0
20260504030323 0 81 0.0 0.0 0.00 0.00 0.00 1006.0
20260504025819 0 64 0.0 0.0 0.00 0.00 0.00 1006.0
20260504025317 0 81 0.0 0.0 0.00 0.00 0.00 1006.1
20260504024813 0 70 0.0 0.0 0.00 0.00 0.00 1006.2
20260504024310 0 75 0.0 0.0 0.00 0.00 0.00 1005.9
20260504023806 0 71 0.0 0.0 0.00 0.00 0.00 1006.3
20260504023303 0 54 0.9 0.9 0.00 0.00 0.00 1006.0
20260504022759 0 75 0.9 0.9 0.00 0.00 0.00 1006.2
20260504022256 0 68 0.0 0.0 0.00 0.00 0.00 1006.0
20260504021752 0 73 0.0 0.9 0.00 0.00 0.00 1006.2
20260504021250 0 75 0.0 0.0 0.00 0.00 0.00 1006.1
20260504020747 0 59 0.0 0.0 0.00 0.00 0.00 1006.3
20260504020243 0 70 0.0 0.0 0.00 0.00 0.00 1006.0
20260504015739 0 74 0.0 0.0 0.00 0.00 0.00 1006.3
20260504015236 0 71 0.0 0.0 0.00 0.00 0.00 1006.1
20260504014731 0 67 0.0 0.0 0.00 0.00 0.00 1005.8
20260504014228 0 63 0.0 0.0 0.00 0.00 0.00 1005.9
20260504013726 0 59 0.9 0.9 0.00 0.00 0.00 1005.9
20260504013224 0 65 0.0 0.9 0.00 0.00 0.00 1006.1
20260504012720 0 71 0.0 0.0 0.00 0.00 0.00 1006.0
20260504012218 0 58 0.9 0.9 0.00 0.00 0.00 1005.9
20260504011714 0 73 0.0 0.0 0.00 0.00 0.00 1005.8
20260504011211 0 62 0.0 0.9 0.00 0.00 0.00 1005.9
20260504010707 0 61 0.9 0.9 0.00 0.00 0.00 1006.0
20260504010203 0 70 0.0 0.0 0.00 0.00 0.00 1006.0
20260504005700 0 75 0.0 0.0 0.00 0.00 0.00 1005.7
20260504005157 0 70 0.0 0.0 0.00 0.00 0.00 1005.8
20260504004655 0 80 0.0 0.0 0.00 0.00 0.00 1005.7
20260504004151 0 85 0.0 0.0 0.00 0.00 0.00 1005.6
20260504003648 0 82 0.0 0.0 0.00 0.00 0.00 1005.8
20260504003144 0 79 0.0 0.0 0.00 0.00 0.00 1005.5
20260504002641 0 91 0.0 0.0 0.00 0.00 0.00 1005.7
20260504002139 0 101 0.0 0.0 0.00 0.00 0.00 1005.9
20260504001637 0 120 0.0 0.9 0.00 0.00 0.00 1005.8
20260504001132 0 41 0.9 1.7 0.00 0.00 0.00 1005.8
20260504000630 0 68 1.7 1.7 0.00 0.00 0.00 1005.8
20260504000127 0 108 0.9 0.9 0.00 0.00 0.00 1005.7
20260503235625 0 180 0.0 0.9 0.00 0.00 0.00 1005.8
20260503235121 0 85 0.0 0.0 0.00 0.00 0.00 1005.6
20260503234620 0 65 0.9 0.9 0.00 0.00 0.00 1005.9
20260503234117 0 315 0.9 0.9 0.00 0.00 0.00 1005.7
20260503233614 0 156 0.9 0.9 0.00 0.00 0.00 1005.9
20260503233110 0 59 0.9 0.9 0.00 0.00 0.00 1005.6
20260503232607 0 203 0.9 0.9 0.00 0.00 0.00 1005.8
20260503232104 0 62 1.7 1.7 0.00 0.00 0.00 1005.9
20260503231602 0 98 0.0 0.0 0.00 0.00 0.00 1006.0
20260503231059 0 62 2.6 2.6 0.00 0.00 0.00 1005.9
20260503230555 0 81 0.9 0.9 0.00 0.00 0.00 1005.8
20260503230053 0 109 0.9 0.9 0.00 0.00 0.00 1006.1
20260503225549 0 99 2.6 2.6 0.00 0.00 0.00 1006.0
20260503225044 0 104 0.9 0.9 0.00 0.00 0.00 1006.2
20260503224542 0 93 0.9 0.9 0.00 0.00 0.00 1006.3
20260503224040 0 193 1.7 1.7 0.00 0.00 0.00 1006.3
20260503223538 0 113 0.9 1.7 0.00 0.00 0.00 1006.3
20260503223033 0 76 1.7 2.6 0.00 0.00 0.00 1006.4
20260503222531 0 203 1.7 1.7 0.00 0.00 0.00 1006.2
20260503222029 0 341 2.6 4.3 0.00 0.00 0.00 1006.2
20260503221527 0 84 2.6 2.6 0.00 0.00 0.00 1006.3
20260503221024 0 180 0.9 1.7 0.00 0.00 0.00 1006.1
20260503220520 0 26 4.3 7.0 0.00 0.00 0.00 1006.1
20260503220017 0 46 1.7 2.6 0.00 0.00 0.00 1006.2
20260503215514 0 286 0.9 0.9 0.00 0.00 0.00 1006.2
20260503215011 0 151 2.6 2.6 0.00 0.00 0.00 1006.5
20260503214510 0 185 1.7 1.7 0.00 0.00 0.00 1006.2
20260503214006 0 160 1.7 2.6 0.00 0.00 0.00 1006.2
20260503213504 0 119 1.7 2.6 0.00 0.00 0.00 1006.4
20260503213000 0 183 3.5 5.2 0.00 0.00 0.00 1006.4
20260503212458 0 168 2.6 2.6 0.00 0.00 0.00 1006.5
20260503211955 0 203 2.6 4.3 0.00 0.00 0.00 1006.7
20260503211452 0 25 0.9 1.7 0.00 0.00 0.00 1006.7
20260503210948 0 214 0.9 1.7 0.00 0.00 0.00 1006.6
20260503210445 0 11 0.9 1.7 0.00 0.00 0.00 1006.6
20260503205939 0 200 0.9 1.7 0.00 0.00 0.00 1006.6
20260503205437 0 210 1.7 1.7 0.00 0.00 0.00 1006.9
20260503204932 78 256 2.6 2.6 0.00 0.00 0.00 34 1006.9
20260503204430 78 127 2.6 5.2 0.00 0.00 0.00 36 1007.2
20260503203927 78 70 1.7 1.7 0.00 0.00 0.00 40 1007.3
20260503203424 78 347 2.6 4.3 0.00 0.00 0.00 34 1007.3
20260503202921 78 355 0.9 4.3 0.00 0.00 0.00 35 1007.5
20260503202419 78 322 0.9 1.7 0.00 0.00 0.00 36 1007.7
20260503201918 77 100 2.6 2.6 0.00 0.00 0.00 36 1007.6
20260503201414 78 86 0.9 0.9 0.00 0.00 0.00 34 1007.8
20260503200912 77 128 2.6 2.6 0.00 0.00 0.00 35 1008.1
20260503200408 77 206 1.7 1.7 0.00 0.00 0.00 43 1007.9
20260503195905 77 198 1.7 1.7 0.00 0.00 0.00 36 1008.3
20260503195401 76 63 1.7 1.7 0.00 0.00 0.00 39 1008.8
20260503194858 76 168 2.6 2.6 0.00 0.00 0.00 43 1008.6
20260503194355 77 223 3.5 5.2 0.00 0.00 0.00 40 1008.8
20260503193851 77 35 1.7 1.7 0.00 0.00 0.00 39 1009.0
20260503193347 76 127 1.7 1.7 0.00 0.00 0.00 40 1009.2
20260503192843 75 16 4.3 5.2 0.00 0.00 0.00 37 1009.3
20260503192338 75 214 1.7 1.7 0.00 0.00 0.00 38 1009.4
20260503191835 75 117 2.6 2.6 0.00 0.00 0.00 39 1009.5
20260503191332 75 139 2.6 2.6 0.00 0.00 0.00 39 1010.0
20260503190829 74 117 0.9 1.7 0.00 0.00 0.00 38 1010.0
20260503190326 75 154 1.7 1.7 0.00 0.00 0.00 37 1010.0
20260503185823 74 89 0.9 0.9 0.00 0.00 0.00 40 1010.0
20260503185320 74 21 4.3 5.2 0.00 0.00 0.00 39 1010.3
20260503184819 73 200 1.7 2.6 0.00 0.00 0.00 37 1010.3